Meteo pe oră la Allerona

Astăzi, 23 Ianuarie, Sâmbătă

Timp Temperatura Precipitaţii Vânt Presiune Umiditate
00:00 +5°C° 0 mm 7 m/s 710 mmHg 84%
01:00 +5°C° 0 mm 7 m/s 710 mmHg 83%
02:00 +5°C° 0 mm 7 m/s 709 mmHg 82%
03:00 +4°C° 0 mm 7 m/s 709 mmHg 81%
04:00 +4°C° 0 mm 8 m/s 709 mmHg 81%
05:00 +4°C° 0 mm 7 m/s 709 mmHg 81%
06:00 +3°C° 0 mm 6 m/s 708 mmHg 81%
07:00 +3°C° 0 mm 6 m/s 708 mmHg 80%
08:00 +5°C° 0.1 mm 5 m/s 709 mmHg 78%
09:00 +5°C° 0.1 mm 5 m/s 709 mmHg 76%
10:00 +6°C° 0.1 mm 5 m/s 709 mmHg 74%
11:00 +5°C° 0.1 mm 6 m/s 709 mmHg 71%
12:00 +5°C° 0.1 mm 7 m/s 709 mmHg 68%
13:00 +6°C° 0.1 mm 8 m/s 710 mmHg 66%
14:00 +6°C° 0.1 mm 8 m/s 709 mmHg 68%
15:00 +5°C° 0.1 mm 7 m/s 709 mmHg 71%
16:00 +5°C° 0.1 mm 6 m/s 709 mmHg 73%
17:00 +5°C° 0.1 mm 6 m/s 709 mmHg 76%
18:00 +5°C° 0.1 mm 5 m/s 709 mmHg 78%
19:00 +5°C° 0.1 mm 5 m/s 709 mmHg 81%
20:00 +3°C° 0.4 mm 5 m/s 709 mmHg 82%
21:00 +4°C° 0.4 mm 4 m/s 709 mmHg 84%
22:00 +4°C° 0.4 mm 4 m/s 709 mmHg 85%
23:00 +3°C° 0.1 mm 5 m/s 710 mmHg 83%

Mâine, 24 Ianuarie, Duminică

Timp Temperatura Precipitaţii Vânt Presiune Umiditate
00:00 +3°C° 0.1 mm 5 m/s 710 mmHg 81%
01:00 +2°C° 0.1 mm 6 m/s 710 mmHg 79%
02:00 +2°C° 0 mm 5 m/s 710 mmHg 78%
03:00 +3°C° 0 mm 4 m/s 710 mmHg 76%
04:00 +2°C° 0 mm 3 m/s 709 mmHg 75%
05:00 +3°C° 0 mm 2 m/s 709 mmHg 78%
06:00 +3°C° 0 mm 2 m/s 710 mmHg 80%
07:00 +3°C° 0 mm 2 m/s 710 mmHg 83%
08:00 +4°C° 0 mm 2 m/s 709 mmHg 84%
09:00 +5°C° 0 mm 2 m/s 709 mmHg 85%
10:00 +6°C° 0 mm 2 m/s 709 mmHg 85%
11:00 +7°C° 0.8 mm 1 m/s 709 mmHg 88%
12:00 +7°C° 0.8 mm 1 m/s 708 mmHg 90%
13:00 +7°C° 0.8 mm 1 m/s 708 mmHg 93%
14:00 +6°C° 0.3 mm 2 m/s 708 mmHg 90%
15:00 +6°C° 0.3 mm 2 m/s 708 mmHg 87%
16:00 +5°C° 0.3 mm 3 m/s 709 mmHg 83%
17:00 +5°C° 0.1 mm 2 m/s 709 mmHg 86%
18:00 +4°C° 0.1 mm 2 m/s 709 mmHg 88%
19:00 +5°C° 0.1 mm 1 m/s 710 mmHg 90%
20:00 +4°C° 0.1 mm 1 m/s 710 mmHg 91%
21:00 +4°C° 0.1 mm 1 m/s 711 mmHg 92%
22:00 +4°C° 0.1 mm 1 m/s 711 mmHg 93%
23:00 +4°C° 0 mm 1 m/s 711 mmHg 92%

Poimâine, 25 Ianuarie, Luni

Timp Temperatura Precipitaţii Vânt Presiune Umiditate
00:00 +3°C° 0 mm 1 m/s 711 mmHg 90%
01:00 +2°C° 0 mm 2 m/s 712 mmHg 88%
02:00 +3°C° 0.4 mm 2 m/s 711 mmHg 87%
03:00 +2°C° 0.4 mm 3 m/s 711 mmHg 86%
04:00 +1°C° 0.4 mm 4 m/s 711 mmHg 85%
05:00 +1°C° 0.2 mm 4 m/s 711 mmHg 85%
06:00 0°C° 0.2 mm 4 m/s 711 mmHg 85%
07:00 0°C° 0.2 mm 4 m/s 711 mmHg 84%
08:00 +1°C° 0.2 mm 4 m/s 712 mmHg 85%
09:00 +1°C° 0.2 mm 4 m/s 713 mmHg 85%
10:00 +3°C° 0.2 mm 4 m/s 713 mmHg 85%
11:00 +4°C° 0.1 mm 4 m/s 714 mmHg 79%
12:00 +4°C° 0.1 mm 4 m/s 715 mmHg 73%
13:00 +5°C° 0.1 mm 4 m/s 716 mmHg 67%
14:00 +5°C° 0.4 mm 3 m/s 717 mmHg 69%
15:00 +4°C° 0.4 mm 3 m/s 717 mmHg 71%
16:00 +4°C° 0.4 mm 2 m/s 718 mmHg 74%
17:00 +3°C° 0.1 mm 2 m/s 719 mmHg 77%
18:00 +3°C° 0.1 mm 1 m/s 719 mmHg 80%
19:00 +2°C° 0.1 mm 1 m/s 720 mmHg 83%
20:00 +1°C° 0 mm 0 m/s 720 mmHg 82%
21:00 +1°C° 0 mm 0 m/s 720 mmHg 82%
22:00 0°C° 0 mm 0 m/s 721 mmHg 82%
23:00 0°C° 0 mm 0 m/s 721 mmHg 81%

26 Ianuarie, Marţi

Timp Temperatura Precipitaţii Vânt Presiune Umiditate
00:00 0°C° 0 mm 0 m/s 721 mmHg 80%
01:00 0°C° 0 mm 0 m/s 721 mmHg 79%
02:00 0°C° 0 mm 0 m/s 721 mmHg 79%
03:00 0°C° 0 mm 0 m/s 721 mmHg 78%
04:00 -1°C° 0 mm 0 m/s 721 mmHg 78%
05:00 -1°C° 0 mm 0 m/s 721 mmHg 77%
06:00 -1°C° 0 mm 0 m/s 722 mmHg 76%
07:00 -1°C° 0 mm 0 m/s 722 mmHg 75%
08:00 +1°C° 0 mm 0 m/s 722 mmHg 72%
09:00 +2°C° 0 mm 0 m/s 723 mmHg 68%
10:00 +4°C° 0 mm 0 m/s 724 mmHg 64%
11:00 +6°C° 0 mm 1 m/s 724 mmHg 61%
12:00 +7°C° 0 mm 1 m/s 724 mmHg 57%
13:00 +8°C° 0 mm 1 m/s 724 mmHg 53%
14:00 +8°C° 0 mm 1 m/s 724 mmHg 56%
15:00 +8°C° 0 mm 1 m/s 724 mmHg 60%
16:00 +7°C° 0 mm 1 m/s 724 mmHg 64%
17:00 +6°C° 0 mm 1 m/s 724 mmHg 69%
18:00 +4°C° 0 mm 1 m/s 724 mmHg 75%
19:00 +2°C° 0 mm 1 m/s 724 mmHg 81%
20:00 +2°C° 0 mm 1 m/s 724 mmHg 81%
21:00 +1°C° 0 mm 0 m/s 724 mmHg 81%
22:00 0°C° 0 mm 0 m/s 725 mmHg 81%
23:00 +1°C° 0 mm 0 m/s 724 mmHg 79%

27 Ianuarie, Miercuri

Timp Temperatura Precipitaţii Vânt Presiune Umiditate
00:00 +1°C° 0 mm 0 m/s 724 mmHg 78%
01:00 +2°C° 0 mm 1 m/s 724 mmHg 76%
02:00 +2°C° 0 mm 1 m/s 724 mmHg 75%
03:00 +2°C° 0 mm 1 m/s 724 mmHg 75%
04:00 +2°C° 0 mm 1 m/s 723 mmHg 74%
05:00 +1°C° 0 mm 1 m/s 723 mmHg 73%
06:00 +1°C° 0 mm 1 m/s 723 mmHg 71%
07:00 +1°C° 0 mm 1 m/s 723 mmHg 70%
08:00 +2°C° 0 mm 1 m/s 723 mmHg 65%
09:00 +3°C° 0 mm 0 m/s 723 mmHg 61%
10:00 +4°C° 0 mm 0 m/s 723 mmHg 57%
11:00 +6°C° 0 mm 1 m/s 723 mmHg 56%
12:00 +7°C° 0 mm 1 m/s 723 mmHg 55%
13:00 +8°C° 0 mm 1 m/s 723 mmHg 54%
14:00 +8°C° 0 mm 1 m/s 723 mmHg 59%
15:00 +8°C° 0 mm 1 m/s 723 mmHg 63%
16:00 +8°C° 0 mm 1 m/s 723 mmHg 68%
17:00 +6°C° 0 mm 1 m/s 723 mmHg 73%
18:00 +5°C° 0 mm 1 m/s 724 mmHg 78%
19:00 +3°C° 0 mm 1 m/s 724 mmHg 83%
20:00 +3°C° 0 mm 1 m/s 724 mmHg 83%
21:00 +2°C° 0 mm 1 m/s 724 mmHg 84%
22:00 +2°C° 0 mm 1 m/s 725 mmHg 85%
23:00 +2°C° 0 mm 1 m/s 725 mmHg 86%

28 Ianuarie, Joi

Timp Temperatura Precipitaţii Vânt Presiune Umiditate
00:00 +2°C° 0 mm 1 m/s 725 mmHg 87%
01:00 +2°C° 0 mm 1 m/s 725 mmHg 88%
02:00 +2°C° 0 mm 1 m/s 725 mmHg 88%
03:00 +1°C° 0 mm 1 m/s 725 mmHg 89%
04:00 0°C° 0 mm 0 m/s 725 mmHg 89%
05:00 0°C° 0 mm 0 m/s 725 mmHg 89%
06:00 0°C° 0 mm 0 m/s 725 mmHg 88%
07:00 0°C° 0 mm 0 m/s 725 mmHg 88%
08:00 +3°C° 0 mm 1 m/s 725 mmHg 83%
09:00 +4°C° 0 mm 1 m/s 726 mmHg 79%
10:00 +5°C° 0 mm 1 m/s 726 mmHg 74%
11:00 +6°C° 0 mm 2 m/s 726 mmHg 73%
12:00 +7°C° 0 mm 2 m/s 726 mmHg 71%
13:00 +8°C° 0 mm 2 m/s 725 mmHg 69%
14:00 +7°C° 0 mm 2 m/s 725 mmHg 74%
15:00 +7°C° 0 mm 2 m/s 725 mmHg 80%
16:00 +6°C° 0 mm 2 m/s 724 mmHg 85%
17:00 +6°C° 0 mm 2 m/s 724 mmHg 88%
18:00 +5°C° 0 mm 2 m/s 723 mmHg 90%
19:00 +5°C° 0 mm 2 m/s 723 mmHg 93%
Arată mai mult

Formular de consimțământ

Meteoprog și furnizorii noștri de servicii pot stoca și accesa date personale, precum cookies, identificatori de dispozitiv sau alte tehnologii similare pe dispozitivul dumneavoastră și procesa astfel de date pentru a personaliza conținutul și reclamele, dar și pentru a oferi caracteristici de social media și pentru a analiza traficul.

  • Stocarea și/sau accesarea informațiilor pe dispozitivul dumneavoastră

    Cookies, identificatori de dispozitiv sau alte informații pot fi stocate sau accesate pe dispozitiv în scopurile indicate mai sus.

  • Reclame și conținut personalizat, evaluarea reclamelor și a conținutului, informații despre audiențe și dezvoltarea produselor

    Reclamele și conținutul pot fi personalizate pe baza unui profil. Pot fi adăugate date suplimentare pentru a personaliza mai bine reclamele și conținutul. Performanța reclamelor și conținutului poate fi măsurată. Pot fi obținute informații despre utilizatorii care au văzut reclamele și conținutul. Aceste date pot fi utilizate pentru a dezvolta sau îmbunătăți experiența utilizatorilor, sistemele și software-ul.

Dând clic pe ‘Sunt de acord’, permiteți utilizarea cookie-urilor menționate, a identificatorilor de dispozitiv, balizelor web sau altor tehnologii similare. Setările pot fi modificate din browser-ul dispozitivului dumneavoastră.

În anumite scopuri, interesele legitime pot prima asupra consimțământului. Puteți citi mai multe informații în acest sens în Politica privind Confidențialitatea Datelor și Cookie.